User: anonymous   Login
Location: Caltech
(34.1382°N, 118.1253°W)
Time: 20:32:27
(UTC-07:00)
Language:

ADEOS II - Orbit

View from above orbital plane
View from above orbital plane
View from above satellite
View from above satellite

Ground track
Ground track

The orbit data is extracted from the following two-line orbital elements,

1 27597U 02056A   16212.55230999  .00000029  00000-0  28658-4 0  9991
2 27597  98.3251 190.5914 0001338 129.3448 230.7852 14.27224277709545
Epoch (UTC): 30 July 2016 13:15:19
Eccentricity: 0.0001338
inclination: 98.3251°
perigee height: 800 km
apogee height: 802 km
right ascension of ascending node: 190.5914°
argument of perigee: 129.3448°
revolutions per day: 14.27224277
mean anomaly at epoch: 230.7852°
orbit number at epoch: 70954

The dashed part of the orbit path shows where the satellite is in the earth's shadow,  

DLR